EW4785 Weather Reports


time (UTC)temp
F
wind
direction
speed
knots
gust
knots
rain 1hr
in
rain 24hr
in
rain mn
in
humidity
%
barometer
mb
20260503021508 43 207 0.0 0.9 0.00 0.00 0.00 88 1014.7
20260503020003 44 207 0.0 0.0 0.00 0.00 0.00 87 1014.6
20260503014611 44 207 0.0 0.0 0.00 0.00 0.00 86 1014.4
20260503013057 45 207 0.0 0.0 0.00 0.00 0.00 83 1014.2
20260503011557 47 207 0.0 0.0 0.00 0.00 0.00 82 1013.9
20260503010051 47 207 0.0 0.0 0.00 0.00 0.00 81 1013.6
20260503004550 48 207 0.0 0.0 0.00 0.00 0.00 79 1013.6
20260503003049 48 207 0.0 0.0 0.00 0.00 0.00 76 1013.4
20260503001556 50 207 0.0 0.0 0.00 0.00 0.00 73 1013.4
20260503000046 52 207 0.0 0.0 0.00 0.00 0.00 70 1013.2
20260502234549 54 207 0.0 0.0 0.00 0.00 0.00 66 1013.0
20260502233046 56 203 0.0 0.0 0.00 0.00 0.00 63 1012.8
20260502231545 57 203 0.0 1.7 0.00 0.00 0.00 54 1012.6
20260502230045 59 210 0.0 2.6 0.00 0.00 0.00 53 1012.5
20260502224544 58 210 0.0 0.9 0.00 0.00 0.00 57 1012.4
20260502223043 57 210 0.0 1.7 0.00 0.00 0.00 57 1012.4
20260502221543 57 52 0.0 0.0 0.00 0.00 0.00 58 1012.3
20260502220043 58 52 0.0 0.9 0.00 0.00 0.00 57 1012.1
20260502214542 58 47 0.0 1.7 0.00 0.00 0.00 54 1012.1
20260502213042 58 74 0.0 1.7 0.00 0.00 0.00 55 1012.0
20260502211540 58 294 0.0 2.6 0.00 0.00 0.00 53 1012.0
20260502210039 57 11 0.0 1.7 0.00 0.00 0.00 55 1012.1
20260502204543 57 263 0.0 1.7 0.00 0.00 0.00 54 1012.1
20260502203036 56 290 0.0 3.5 0.00 0.00 0.00 55 1012.3
20260502201545 57 165 0.0 1.7 0.00 0.00 0.00 53 1012.5
20260502200036 56 44 0.0 2.6 0.00 0.00 0.00 56 1012.7
20260502194535 56 319 0.9 4.3 0.00 0.00 0.00 54 1012.7
20260502193034 56 22 0.0 2.6 0.00 0.00 0.00 54 1012.9
20260502191540 57 271 0.0 3.5 0.00 0.00 0.00 55 1013.0
20260502190038 58 326 0.0 3.5 0.00 0.00 0.00 52 1012.8
20260502184545 59 38 0.0 2.6 0.00 0.00 0.00 51 1012.7
20260502183040 59 28 0.0 2.6 0.00 0.00 0.00 53 1013.0
20260502181538 57 310 0.0 2.6 0.00 0.00 0.00 56 1013.1
20260502163024 57 95 0.9 3.5 0.00 0.00 0.00 56 1013.8
20260502161526 56 317 0.0 2.6 0.00 0.00 0.00 61 1013.9
20260502151520 57 37 0.0 2.6 0.00 0.00 0.00 56 1014.5
20260502130107 53 23 0.0 1.7 0.00 0.00 0.00 69 1013.8
20260502123055 52 134 0.0 0.9 0.00 0.00 0.00 73 1013.6
20260502121555 52 320 0.0 1.7 0.00 0.00 0.00 75 1013.8
20260502114551 51 55 0.0 1.7 0.00 0.00 0.00 82 1013.3
20260502113046 51 100 0.0 1.7 0.00 0.00 0.00 84 1013.1
20260502111544 50 344 0.0 0.0 0.00 0.00 0.00 86 1013.1
20260502110043 50 31 0.0 0.9 0.00 0.00 0.00 87 1013.0
20260502104542 50 32 0.0 0.9 0.00 0.00 0.00 89 1013.1
20260502103044 50 126 0.0 0.9 0.00 0.00 0.00 90 1013.0
20260502101550 50 99 0.0 1.7 0.00 0.00 0.00 93 1013.3
20260502091533 50 193 0.0 0.0 0.00 0.00 0.00 94 1013.7
20260502071524 50 193 0.0 0.0 0.00 0.00 0.00 94 1012.5
20260502070023 50 193 0.0 0.9 0.00 0.00 0.00 94 1012.4
20260502064519 49 193 0.0 0.9 0.00 0.00 0.00 94 1012.8
20260502063026 49 193 0.0 0.9 0.00 0.00 0.00 93 1012.7
20260502061516 49 193 0.0 0.0 0.00 0.00 0.00 93 1012.6
20260502060016 49 193 0.0 0.0 0.00 0.00 0.00 93 1012.5
20260502054515 49 193 0.0 0.0 0.00 0.00 0.00 93 1012.5
20260502053133 49 193 0.0 0.0 0.00 0.00 0.00 92 1012.7
20260502051512 49 193 0.0 0.0 0.00 0.00 0.00 92 1012.8
20260502050010 49 193 0.0 0.9 0.00 0.00 0.00 92 1012.9
20260502044509 49 193 0.0 0.9 0.00 0.00 0.00 91 1013.1
20260502043007 49 193 0.0 0.0 0.00 0.00 0.00 91 1013.1
20260502041507 49 193 0.0 0.0 0.00 0.00 0.00 91 1013.2
20260502040003 50 193 0.0 0.9 0.00 0.00 0.00 90 1013.1
20260502034505 50 193 0.0 0.0 0.00 0.00 0.00 89 1013.4
20260502033109 50 193 0.0 0.0 0.00 0.00 0.00 89 1013.4
20260502031600 50 193 0.0 0.0 0.00 0.00 0.00 88 1013.6
20260502030100 50 193 0.0 1.7 0.00 0.00 0.00 88 1013.4
20260502024559 50 193 0.0 0.9 0.00 0.00 0.00 88 1013.5
20260502023059 51 193 0.0 0.0 0.00 0.00 0.00 86 1013.7